Regional Weather Roundup
Issued by NWS

Home | Current Version | Previous Version | Graphics & Text | Print | Product List | Glossary Off
Versions: 1 2 3 4 5 6 7 8 9 10 11 12 13 14 15 16 17 18 19 20 21 22 23 24 25 26 27 28 29 30 31 32 33 34 35 36 37 38 39 40 41 42 43 44 45 46 47 48 49 50

000
ASUS43 KDTX 200001
RWRMI
MICHIGAN HOURLY REGIONAL WEATHER ROUNDUP
NATIONAL WEATHER SERVICE DETROIT/PONTIAC MI
800 PM EDT SUN OCT 19 2014

NOTE: "FAIR" INDICATES FEW OR NO CLOUDS BELOW 12,000 FEET WITH NO
SIGNIFICANT WEATHER AND/OR OBSTRUCTION TO VISIBILITY.

MIZ047>049-052>055-059>063-066>070-074>076-081>083-200100-
SOUTHEAST LOWER MICHIGAN

CITY           SKY/WX    TMP DP  RH WIND       PRES   REMARKS
ADRIAN         CLOUDY    48  36  63 SW9       30.05F
6HR MIN TEMP:  46; 6HR MAX TEMP:  52;

ALMA           MOCLDY    48  38  70 SW3       29.99S
ANN ARBOR      CLOUDY    47  34  60 S6        30.03F
CARO           CLOUDY    46  37  70 S5        29.98F
DETROIT CITY   CLOUDY    51  30  44 SW8       30.04F
6HR MIN TEMP:  50; 6HR MAX TEMP:  53;

DETROIT        CLOUDY    48  31  51 S10       30.04F
6HR MIN TEMP:  48; 6HR MAX TEMP:  53;

FLINT          CLOUDY    50  35  56 S5        30.01F
6HR MIN TEMP:  50; 6HR MAX TEMP:  54;

GROSSE ILE     CLOUDY    48  32  53 S7        30.04F
HILLSDALE      CLOUDY    48  37  64 S3        30.03F
6HR MIN TEMP:  47; 6HR MAX TEMP:  53;

HOWELL         CLOUDY    47  34  59 S5        30.01F
6HR MIN TEMP:  47; 6HR MAX TEMP:  52;


CITY           SKY/WX    TMP DP  RH WIND       PRES   REMARKS
JACKSON        CLOUDY    47  36  65 S6        30.02F
6HR MIN TEMP:  47; 6HR MAX TEMP:  53;

LAMBERTVILLE   CLOUDY    45  34  65 CALM      30.06F
LANSING        MOCLDY    49  36  61 S9        30.01F
6HR MIN TEMP:  49; 6HR MAX TEMP:  53;

LAPEER         FAIR      45  36  69 S3        30.00F
MASON          CLOUDY    47  37  67 CALM      30.01F
MONROE         CLOUDY    45  34  65 S5        30.04F
MT. CLEMENS    CLOUDY    45  34  65 S6        30.01F
6HR MIN TEMP:  44; 6HR MAX TEMP:  52;

PONTIAC        CLOUDY    48  33  56 S7        30.00F
6HR MIN TEMP:  48; 6HR MAX TEMP:  51;

PORT HOPE        N/A     45  34  65 SE5       29.97F
6HR MIN TEMP:  45; 6HR MAX TEMP:  48;

PORT HURON     CLOUDY    43  36  75 CALM      30.03F
TRI CITIES     CLOUDY    50  37  61 SW5       30.00S
6HR MIN TEMP:  50; 6HR MAX TEMP:  53;

TROY           CLOUDY    51  29  43 S6        30.04F
SAGINAW HB     CLOUDY    50  37  62 CALM      29.99S
$$
MIZ043>046-050>051-056>058-064>065-071>073-077>080-200100-
SOUTHWEST LOWER MICHIGAN

CITY           SKY/WX    TMP DP  RH WIND       PRES   REMARKS
BATTLE CREEK   CLOUDY    48  37  65 S7        30.02S
6HR MIN TEMP:  48; 6HR MAX TEMP:  53;

BENTON HARBOR  CLOUDY    49  39  68 S7        29.99F
6HR MIN TEMP:  49; 6HR MAX TEMP:  52;

BIG RAPIDS     CLOUDY    47  43  84 S9G18     29.92F
6HR MIN TEMP:  47; 6HR MAX TEMP:  50;

COLDWATER      CLOUDY    49  38  64 S5        30.03S
6HR MIN TEMP:  49; 6HR MAX TEMP:  53;

FREMONT        FAIR      47  40  78 S7        29.94F
HOLLAND        PTCLDY    49  39  68 S6        29.99F
6HR MIN TEMP:  48; 6HR MAX TEMP:  54;

GRAND RAPIDS   MOCLDY    47  39  74 S5        29.98F
6HR MIN TEMP:  47; 6HR MAX TEMP:  53;

IONIA          FAIR      49  38  66 SW5       29.99S
KALAMAZOO      CLOUDY    48  38  68 S8        30.01F
6HR MIN TEMP:  47; 6HR MAX TEMP:  54;

LUDINGTON      CLOUDY    49  44  83 S13       29.91S
6HR MIN TEMP:  49; 6HR MAX TEMP:  52;

MARSHALL       CLOUDY    47  37  66 CALM      30.02S
MOUNT PLEASANT CLOUDY    48  38  68 S5        29.96F
6HR MIN TEMP:  48; 6HR MAX TEMP:  52;

MUSKEGON       MOCLDY    52  41  66 S16G24    29.95F
6HR MIN TEMP:  50; 6HR MAX TEMP:  52;

SOUTH HAVEN    MOCLDY    49  40  71 S6        29.98F
$$
MIZ016>042-200100-
NORTHERN LOWER MICHIGAN

CITY           SKY/WX    TMP DP  RH WIND       PRES   REMARKS
ALPENA         CLOUDY    45  37  73 S6        29.92F
6HR MIN TEMP:  45; 6HR MAX TEMP:  49;

BEAVER ISLAND  LGT RAIN  49  41  75 SW7       29.87S
6HR MIN TEMP:  49; 6HR MAX TEMP:  50;

BELLAIRE       CLOUDY    49  38  64 S9        29.89S
CADILLAC       CLOUDY    45  39  79 S10G18    29.89F
CHARLEVOIX     CLOUDY    50  39  67 S6        29.90S
6HR MIN TEMP:  49; 6HR MAX TEMP:  52;

FRANKFORT      LGT RAIN  49  42  76 S10G16    29.88S
GAYLORD        CLOUDY    46  36  68 S13       29.88F
6HR MIN TEMP:  46; 6HR MAX TEMP:  49;

GRAYLING       CLOUDY    49  39  68 S7        29.90F
6HR MIN TEMP:  49; 6HR MAX TEMP:  52;

HARBOR SPRINGS CLOUDY    49  37  62 CALM      29.88F
HOUGHTON LAKE  CLOUDY    46  37  71 S10       29.92F
6HR MIN TEMP:  46; 6HR MAX TEMP:  50;

MANISTEE       CLOUDY    48  39  71 S9G17     29.90S
OSCODA         CLOUDY    47  37  67 S6        29.95F
PELLSTON       CLOUDY    48  38  68 S5        29.88F
6HR MIN TEMP:  47; 6HR MAX TEMP:  51; 6HR PCP: TRACE;

TRAVERSE CITY  CLOUDY    50  37  61 S14G25    29.88S
6HR MIN TEMP:  50; 6HR MAX TEMP:  53;

$$
MIZ007>008-015-200100-
EASTERN UPPER MICHIGAN

CITY           SKY/WX    TMP DP  RH WIND       PRES   REMARKS
KINROSS        CLOUDY    45  41  87 SE12      29.87S
6HR MIN TEMP:  45; 6HR MAX TEMP:  48;

MACKINAC ISLAN CLOUDY    49  38  67 S7        29.87F
6HR MIN TEMP:  46; 6HR MAX TEMP:  50;

NEWBERRY       LGT RAIN  45  43  93 S17G23    29.82F
S. S. MARIE    CLOUDY    44  39  82 SE9       29.87F
6HR MIN TEMP:  44; 6HR MAX TEMP:  47; 6HR PCP:  0.03;

MUNISING         N/A     49  45  86 S12G23    29.78R
6HR MIN TEMP:  48; 6HR MAX TEMP:  52; 6HR PCP:  0.10;

$$
MIZ004>006-011>014-085-200100-
CENTRAL UPPER MICHIGAN

CITY           SKY/WX    TMP DP  RH WIND       PRES   REMARKS
MANISTIQUE     LGT RAIN  48  47  95 S18G24    29.83S
ESCANABA       CLOUDY    50  45  81 S9G16     29.80S
6HR MIN TEMP:  48; 6HR MAX TEMP:  50; 6HR PCP:  0.02;

MENOMINEE      CLOUDY    52  43  71 SW12      29.80F
6HR MIN TEMP:  50; 6HR MAX TEMP:  52;

SAWYER-GWINN   CLOUDY    45  43  93 S10       29.77S
$$
MIZ001>003-009>011-084-200100-
WESTERN UPPER MICHIGAN

CITY           SKY/WX    TMP DP  RH WIND       PRES   REMARKS
IRON MOUNTAIN  CLOUDY    46  42  86 SE6       29.77S
6HR MIN TEMP:  46; 6HR MAX TEMP:  49; 6HR PCP: TRACE;

HOUGHTON       MOCLDY    45  41  86 S3        29.73S
6HR MIN TEMP:  43; 6HR MAX TEMP:  48; 6HR PCP:  0.01;

COPPER HARBOR    N/A     48  42  80 SW8       29.73F
6HR MIN TEMP:  44; 6HR MAX TEMP:  48; 6HR PCP:  0.03;

IRONWOOD       MOCLDY    52  43  71 SW5       29.73R
6HR MIN TEMP:  48; 6HR MAX TEMP:  55;

$$

ABBREVIATIONS USED IN REMARKS
   TC - TEMPERATURE IN CELSIUS
  WCI - WIND CHILL INDEX
   HX - HEAT INDEX
  VSB - VISIBILITY




USA.gov is the U.S. government's official web portal to all federal, state and local government web resources and services.